Voltar ao catálogo

STARLINK-31736

AtivoComunicaçõesVLEO
NORAD 59547·PAYLOAD·🇺🇸 United States

Lançado Apr 18, 2024 de Cape Canaveral Space Force Station

Loading…

Próximas Passagens (próximas 24 horas)

TLE

AtualizadoSource: CelesTrak SupGP

Época: Sep 15, 2026, 01:49 UTC

1 59547C 24074P   26258.07618056  .00023461  00000+0  84967-3 0  2583
2 59547  43.0036 347.0137 0001956 267.8027 278.9445 15.27569723    13

Acompanhe STARLINK-31736 em tempo real com AllMySat

Download on the App Store